Time,TemperatureF,DewpointF,PressureIn,WindDirection,WindDirectionDegrees,WindSpeedMPH,WindSpeedGustMPH,Humidity,HourlyPrecipIn,Conditions,Clouds,dailyrainin,SoftwareType,DateUTC
2013-03-22 00:00:00,55.3,53.3,29.83,SE,130,5.0,6.0,93,0.00,,---,0.01,VWS V14.00,2013-03-22 07:00:00,
2013-03-22 00:04:00,55.3,53.3,29.83,SE,130,5.0,6.0,93,0.00,,---,0.01,VWS V14.00,2013-03-22 07:04:00,
2013-03-22 00:24:00,55.0,53.0,29.82,SSE,167,0.0,9.0,92,0.00,,,0.00,weatherlink.com 1.10,2013-03-22 07:24:00,
2013-03-22 00:30:00,54.9,52.3,29.81,SSE,161,0.0,7.0,91,0.00,,---,0.00,VWS V14.00,2013-03-22 07:30:00,
2013-03-22 00:34:00,54.9,52.3,29.81,SSE,161,0.0,7.0,91,0.00,,---,0.00,VWS V14.00,2013-03-22 07:34:00,
2013-03-22 00:58:00,54.8,52.0,29.81,SE,136,0.0,5.0,91,0.00,,,0.00,weatherlink.com 1.10,2013-03-22 07:58:00,
2013-03-22 01:00:00,54.8,52.2,29.81,East,92,3.0,5.0,91,0.00,,---,0.00,VWS V14.00,2013-03-22 08:00:00,
2013-03-22 01:04:00,54.8,52.2,29.81,East,92,3.0,5.0,91,0.00,,---,0.00,VWS V14.00,2013-03-22 08:04:00,
2013-03-22 01:15:00,54.9,52.0,29.81,ESE,121,0.0,7.0,91,0.00,,,0.00,weatherlink.com 1.10,2013-03-22 08:15:00,
2013-03-22 01:30:00,54.9,52.3,29.81,SE,132,0.0,4.0,91,0.00,,---,0.00,VWS V14.00,2013-03-22 08:30:00,
2013-03-22 01:31:00,54.9,52.0,29.81,SE,134,0.0,4.0,91,0.00,,,0.00,weatherlink.com 1.10,2013-03-22 08:31:00,
2013-03-22 01:49:00,54.9,52.0,29.81,ESE,113,0.0,4.0,91,0.00,,,0.00,weatherlink.com 1.10,2013-03-22 08:49:00,
2013-03-22 02:00:00,54.8,51.9,29.81,ESE,121,0.0,5.0,90,0.00,,---,0.00,VWS V14.00,2013-03-22 09:00:00,
2013-03-22 02:04:00,54.8,51.9,29.81,ESE,121,0.0,5.0,90,0.00,,---,0.00,VWS V14.00,2013-03-22 09:04:00,
2013-03-22 02:07:00,54.9,52.0,29.81,ESE,121,0.0,1.0,90,0.00,,,0.00,weatherlink.com 1.10,2013-03-22 09:07:00,
2013-03-22 02:23:00,55.1,52.0,29.82,SE,139,3.0,3.0,90,0.00,,,0.00,weatherlink.com 1.10,2013-03-22 09:23:00,
2013-03-22 02:30:00,55.1,52.2,29.82,SE,134,0.0,3.0,90,0.00,,---,0.00,VWS V14.00,2013-03-22 09:30:00,
2013-03-22 02:34:00,55.1,52.2,29.82,SE,134,0.0,3.0,90,0.00,,---,0.00,VWS V14.00,2013-03-22 09:34:00,
2013-03-22 02:57:00,54.8,52.0,29.81,SE,134,0.0,1.0,90,0.00,,,0.00,weatherlink.com 1.10,2013-03-22 09:57:00,
2013-03-22 03:00:00,54.7,51.8,29.81,SSE,155,3.0,4.0,90,0.00,,---,0.00,VWS V14.00,2013-03-22 10:00:00,
2013-03-22 03:04:00,54.7,51.8,29.81,SSE,155,3.0,4.0,90,0.00,,---,0.00,VWS V14.00,2013-03-22 10:04:00,
2013-03-22 03:15:00,54.6,52.0,29.80,SE,134,0.0,1.0,90,0.00,,,0.00,weatherlink.com 1.10,2013-03-22 10:15:00,
2013-03-22 03:30:00,54.6,52.0,29.80,SE,134,0.0,0.0,90,0.00,,,0.00,weatherlink.com 1.10,2013-03-22 10:30:00,
2013-03-22 03:45:00,54.5,52.0,29.80,SSE,149,0.0,7.0,90,0.00,,,0.00,weatherlink.com 1.10,2013-03-22 10:45:00,
2013-03-22 04:00:00,54.7,51.8,29.80,SSE,158,0.0,7.0,90,0.00,,---,0.00,VWS V14.00,2013-03-22 11:00:00,
2013-03-22 04:15:00,54.6,52.0,29.80,SE,144,0.0,3.0,91,0.00,,,0.00,weatherlink.com 1.10,2013-03-22 11:15:00,
2013-03-22 04:30:00,54.6,52.0,29.80,SSE,153,0.0,5.0,91,0.00,,,0.00,weatherlink.com 1.10,2013-03-22 11:30:00,
2013-03-22 04:45:00,54.5,52.0,29.80,South,176,0.0,5.0,91,0.00,,,0.00,weatherlink.com 1.10,2013-03-22 11:45:00,
2013-03-22 05:00:00,54.4,52.0,29.80,SSE,168,1.0,3.0,91,0.00,,,0.00,weatherlink.com 1.10,2013-03-22 12:00:00,
2013-03-22 05:15:00,54.5,52.0,29.80,SSE,163,0.0,5.0,91,0.00,,,0.00,weatherlink.com 1.10,2013-03-22 12:15:00,
2013-03-22 05:30:00,54.4,52.0,29.80,SSE,159,0.0,3.0,91,0.00,,,0.00,weatherlink.com 1.10,2013-03-22 12:30:00,
2013-03-22 05:45:00,54.6,52.0,29.80,SSE,166,3.0,4.0,91,0.00,,,0.00,weatherlink.com 1.10,2013-03-22 12:45:00,
2013-03-22 06:00:00,54.6,52.0,29.80,SSW,192,1.0,5.0,91,0.00,,,0.00,weatherlink.com 1.10,2013-03-22 13:00:00,
2013-03-22 06:15:00,54.8,52.0,29.80,SSW,200,2.0,8.0,90,0.00,,,0.00,weatherlink.com 1.10,2013-03-22 13:15:00,
2013-03-22 06:30:00,54.9,52.0,29.81,South,183,0.0,5.0,90,0.00,,,0.00,weatherlink.com 1.10,2013-03-22 13:30:00,
2013-03-22 06:45:00,54.9,52.0,29.81,South,178,0.0,5.0,90,0.00,,,0.00,weatherlink.com 1.10,2013-03-22 13:45:00,
2013-03-22 07:00:00,54.9,52.0,29.82,South,178,0.0,0.0,90,0.00,,,0.00,weatherlink.com 1.10,2013-03-22 14:00:00,
2013-03-22 07:15:00,54.9,52.0,29.83,South,178,0.0,0.0,90,0.00,,,0.00,weatherlink.com 1.10,2013-03-22 14:15:00,
2013-03-22 07:30:00,54.9,52.0,29.83,South,178,0.0,0.0,90,0.00,,,0.00,weatherlink.com 1.10,2013-03-22 14:30:00,
2013-03-22 07:46:00,55.0,52.0,29.83,South,178,0.0,0.0,90,0.00,,,0.00,weatherlink.com 1.10,2013-03-22 14:46:00,
2013-03-22 08:00:00,55.4,52.5,29.83,South,180,0.0,0.0,90,0.00,,---,0.00,VWS V14.00,2013-03-22 15:00:00,
2013-03-22 08:01:00,55.2,52.0,29.84,South,178,0.0,0.0,90,0.00,,,0.00,weatherlink.com 1.10,2013-03-22 15:01:00,
2013-03-22 08:16:00,55.9,53.0,29.83,ESE,103,0.0,0.0,89,0.00,,,0.00,weatherlink.com 1.10,2013-03-22 15:16:00,
2013-03-22 08:30:00,56.3,52.8,29.84,South,180,0.0,5.0,88,0.00,,---,0.00,VWS V14.00,2013-03-22 15:30:00,
2013-03-22 08:31:00,56.3,53.0,29.83,SE,132,0.0,0.0,88,0.00,,,0.00,weatherlink.com 1.10,2013-03-22 15:31:00,
2013-03-22 08:46:00,57.2,53.0,29.84,South,172,0.0,7.0,87,0.00,,,0.00,weatherlink.com 1.10,2013-03-22 15:46:00,
2013-03-22 09:00:00,57.6,53.8,29.86,South,180,2.0,7.0,87,0.00,,---,0.00,VWS V14.00,2013-03-22 16:00:00,
2013-03-22 09:01:00,57.5,54.0,29.85,South,175,0.0,7.0,87,0.00,,,0.00,weatherlink.com 1.10,2013-03-22 16:01:00,
2013-03-22 09:30:00,57.4,53.2,29.87,SW,225,0.0,7.0,86,0.00,,---,0.00,VWS V14.00,2013-03-22 16:30:00,
2013-03-22 09:31:00,57.2,53.0,29.86,SW,221,0.0,4.0,86,0.00,,,0.00,weatherlink.com 1.10,2013-03-22 16:31:00,
2013-03-22 10:00:00,58.4,53.6,29.87,SW,225,0.0,6.0,84,0.00,,---,0.00,VWS V14.00,2013-03-22 17:00:00,
2013-03-22 10:16:00,58.2,53.0,29.87,WNW,291,5.0,7.0,84,0.00,,,0.00,weatherlink.com 1.10,2013-03-22 17:16:00,
2013-03-22 10:30:00,58.1,53.6,29.87,West,270,2.0,6.0,85,0.00,,---,0.00,VWS V14.00,2013-03-22 17:30:00,
2013-03-22 10:31:00,58.0,53.0,29.87,WSW,251,4.0,6.0,84,0.00,,,0.00,weatherlink.com 1.10,2013-03-22 17:31:00,
2013-03-22 10:46:00,58.3,53.0,29.87,SW,224,0.0,6.0,83,0.00,,,0.00,weatherlink.com 1.10,2013-03-22 17:46:00,
2013-03-22 11:00:00,58.0,53.2,29.87,SW,225,1.0,8.0,84,0.00,,---,0.00,VWS V14.00,2013-03-22 18:00:00,
2013-03-22 11:01:00,58.1,53.0,29.86,SSW,205,0.0,8.0,84,0.00,,,0.00,weatherlink.com 1.10,2013-03-22 18:01:00,
2013-03-22 11:16:00,58.3,53.0,29.87,WNW,283,0.0,5.0,82,0.00,,,0.00,weatherlink.com 1.10,2013-03-22 18:16:00,
2013-03-22 11:30:00,58.2,53.1,29.87,WSW,248,1.0,6.0,83,0.00,,---,0.00,VWS V14.00,2013-03-22 18:30:00,
2013-03-22 11:31:00,58.3,53.0,29.87,SSW,204,0.0,5.0,82,0.00,,,0.00,weatherlink.com 1.10,2013-03-22 18:31:00,
2013-03-22 11:46:00,58.4,53.0,29.87,WNW,294,3.0,6.0,82,0.00,,,0.00,weatherlink.com 1.10,2013-03-22 18:46:00,
2013-03-22 12:00:00,59.3,53.1,29.87,WSW,248,1.0,8.0,80,0.00,,---,0.00,VWS V14.00,2013-03-22 19:00:00,
2013-03-22 12:01:00,59.3,52.0,29.86,NW,304,0.0,8.0,78,0.00,,,0.00,weatherlink.com 1.10,2013-03-22 19:01:00,
2013-03-22 12:16:00,59.5,52.0,29.87,WNW,288,0.0,7.0,77,0.00,,,0.00,weatherlink.com 1.10,2013-03-22 19:16:00,
2013-03-22 12:30:00,60.2,52.3,29.87,West,270,3.0,8.0,75,0.00,,---,0.00,VWS V14.00,2013-03-22 19:30:00,
2013-03-22 12:31:00,60.1,54.0,29.87,SW,217,0.0,8.0,79,0.00,,,0.00,weatherlink.com 1.10,2013-03-22 19:31:00,
2013-03-22 12:46:00,60.0,54.0,29.87,WNW,302,1.0,10.0,80,0.00,,,0.00,weatherlink.com 1.10,2013-03-22 19:46:00,
2013-03-22 13:00:00,60.2,54.0,29.86,WSW,248,3.0,11.0,80,0.00,,---,0.00,VWS V14.00,2013-03-22 20:00:00,
2013-03-22 13:01:00,60.1,54.0,29.86,WNW,283,5.0,10.0,80,0.00,,,0.00,weatherlink.com 1.10,2013-03-22 20:01:00,
2013-03-22 13:16:00,59.8,54.0,29.86,WSW,248,0.0,9.0,80,0.00,,,0.00,weatherlink.com 1.10,2013-03-22 20:16:00,
2013-03-22 13:30:00,59.9,54.1,29.86,West,270,4.0,10.0,81,0.00,,---,0.00,VWS V14.00,2013-03-22 20:30:00,
2013-03-22 13:31:00,59.9,54.0,29.86,West,270,0.0,10.0,80,0.00,,,0.00,weatherlink.com 1.10,2013-03-22 20:31:00,
2013-03-22 13:46:00,60.0,54.0,29.86,WNW,285,2.0,10.0,80,0.00,,,0.00,weatherlink.com 1.10,2013-03-22 20:46:00,
2013-03-22 14:00:00,60.1,53.6,29.84,WNW,292,4.0,10.0,79,0.00,,---,0.00,VWS V14.00,2013-03-22 21:00:00,
2013-03-22 14:01:00,60.2,54.0,29.85,West,278,9.0,9.0,81,0.00,,,0.00,weatherlink.com 1.10,2013-03-22 21:01:00,
2013-03-22 14:16:00,59.4,54.0,29.84,NNW,333,0.0,10.0,81,0.00,,,0.00,weatherlink.com 1.10,2013-03-22 21:16:00,
2013-03-22 14:30:00,60.2,54.0,29.84,WNW,292,4.0,10.0,80,0.00,,---,0.00,VWS V14.00,2013-03-22 21:30:00,
2013-03-22 14:31:00,59.6,53.0,29.84,West,280,3.0,10.0,80,0.00,,,0.00,weatherlink.com 1.10,2013-03-22 21:31:00,
2013-03-22 14:46:00,60.0,53.0,29.84,West,275,7.0,9.0,79,0.00,,,0.00,weatherlink.com 1.10,2013-03-22 21:46:00,
2013-03-22 15:00:00,59.8,53.3,29.84,WNW,292,5.0,10.0,79,0.00,,---,0.00,VWS V14.00,2013-03-22 22:00:00,
2013-03-22 15:16:00,60.4,54.0,29.84,West,269,2.0,10.0,78,0.00,,,0.00,weatherlink.com 1.10,2013-03-22 22:16:00,
2013-03-22 15:30:00,60.4,53.9,29.84,WNW,292,4.0,11.0,79,0.00,,---,0.00,VWS V14.00,2013-03-22 22:30:00,
2013-03-22 15:46:00,60.7,54.0,29.84,West,269,4.0,9.0,78,0.00,,,0.00,weatherlink.com 1.10,2013-03-22 22:46:00,
2013-03-22 16:00:00,60.1,52.9,29.84,West,270,6.0,13.0,77,0.00,,---,0.00,VWS V14.00,2013-03-22 23:00:00,
2013-03-22 16:01:00,59.8,53.0,29.84,West,277,7.0,12.0,78,0.00,,,0.00,weatherlink.com 1.10,2013-03-22 23:01:00,
2013-03-22 16:30:00,59.4,53.6,29.84,West,270,8.0,15.0,81,0.00,,---,0.00,VWS V14.00,2013-03-22 23:30:00,
2013-03-22 16:31:00,59.6,53.0,29.84,West,266,10.0,14.0,80,0.00,,,0.00,weatherlink.com 1.10,2013-03-22 23:31:00,
2013-03-22 16:46:00,59.8,53.0,29.84,WSW,245,12.0,16.0,79,0.00,,,0.00,weatherlink.com 1.10,2013-03-22 23:46:00,
2013-03-22 17:00:00,59.8,53.3,29.84,West,270,8.0,16.0,79,0.00,,---,0.00,VWS V14.00,2013-03-23 00:00:00,
2013-03-22 17:01:00,59.5,53.0,29.84,WSW,254,3.0,15.0,79,0.00,,,0.00,weatherlink.com 1.10,2013-03-23 00:01:00,
2013-03-22 17:16:00,59.3,53.0,29.84,WNW,282,10.0,15.0,80,0.00,,,0.00,weatherlink.com 1.10,2013-03-23 00:16:00,
2013-03-22 17:30:00,59.9,52.3,29.84,West,270,7.0,15.0,76,0.00,,---,0.00,VWS V14.00,2013-03-23 00:30:00,
2013-03-22 17:31:00,59.8,52.0,29.84,WNW,294,6.0,9.0,75,0.00,,,0.00,weatherlink.com 1.10,2013-03-23 00:31:00,
2013-03-22 18:00:00,59.6,52.0,29.85,West,270,5.0,10.0,76,0.00,,---,0.00,VWS V14.00,2013-03-23 01:00:00,
2013-03-22 18:01:00,59.6,52.0,29.84,NW,313,4.0,8.0,76,0.00,,,0.00,weatherlink.com 1.10,2013-03-23 01:01:00,
2013-03-22 18:16:00,59.3,52.0,29.85,WNW,284,5.0,7.0,76,0.00,,,0.00,weatherlink.com 1.10,2013-03-23 01:16:00,
2013-03-22 18:30:00,59.6,52.7,29.85,West,270,3.0,7.0,78,0.00,,---,0.00,VWS V14.00,2013-03-23 01:30:00,
2013-03-22 18:31:00,59.7,53.0,29.85,South,172,0.0,4.0,78,0.00,,,0.00,weatherlink.com 1.10,2013-03-23 01:31:00,
2013-03-22 18:46:00,59.3,53.0,29.85,South,186,0.0,5.0,80,0.00,,,0.00,weatherlink.com 1.10,2013-03-23 01:46:00,
2013-03-22 19:00:00,58.4,53.3,29.85,South,180,1.0,5.0,83,0.00,,---,0.00,VWS V14.00,2013-03-23 02:00:00,
2013-03-22 19:01:00,58.6,54.0,29.85,South,186,3.0,3.0,83,0.00,,,0.00,weatherlink.com 1.10,2013-03-23 02:01:00,
2013-03-22 19:16:00,57.7,53.0,29.85,SSW,213,0.0,3.0,85,0.00,,,0.00,weatherlink.com 1.10,2013-03-23 02:16:00,
2013-03-22 19:30:00,57.2,53.4,29.86,SSE,158,1.0,4.0,87,0.00,,---,0.00,VWS V14.00,2013-03-23 02:30:00,
2013-03-22 19:31:00,57.2,53.0,29.86,SSE,161,0.0,3.0,87,0.00,,,0.00,weatherlink.com 1.10,2013-03-23 02:31:00,
2013-03-22 19:46:00,56.7,54.0,29.86,SSE,157,0.0,5.0,89,0.00,,,0.00,weatherlink.com 1.10,2013-03-23 02:46:00,
2013-03-22 20:00:00,56.3,53.4,29.86,SE,135,2.0,5.0,90,0.00,,---,0.00,VWS V14.00,2013-03-23 03:00:00,
2013-03-22 20:01:00,56.3,54.0,29.86,SE,134,1.0,5.0,90,0.00,,,0.00,weatherlink.com 1.10,2013-03-23 03:01:00,
2013-03-22 20:17:00,56.2,53.0,29.86,ESE,121,2.0,7.0,90,0.00,,,0.00,weatherlink.com 1.10,2013-03-23 03:17:00,
2013-03-22 20:30:00,56.0,53.4,29.88,SE,135,3.0,7.0,91,0.00,,---,0.00,VWS V14.00,2013-03-23 03:30:00,
2013-03-22 20:31:00,56.0,54.0,29.87,SE,136,2.0,5.0,91,0.00,,,0.00,weatherlink.com 1.10,2013-03-23 03:31:00,
2013-03-22 20:46:00,56.1,53.0,29.88,SE,128,3.0,7.0,90,0.00,,,0.00,weatherlink.com 1.10,2013-03-23 03:46:00,
2013-03-22 21:00:00,56.0,53.1,29.89,SSE,158,3.0,7.0,90,0.00,,---,0.00,VWS V14.00,2013-03-23 04:00:00,
2013-03-22 21:01:00,56.0,53.0,29.88,SE,126,2.0,5.0,90,0.00,,,0.00,weatherlink.com 1.10,2013-03-23 04:01:00,
2013-03-22 21:16:00,56.0,53.0,29.89,SSE,148,1.0,6.0,90,0.00,,,0.00,weatherlink.com 1.10,2013-03-23 04:16:00,
2013-03-22 21:30:00,55.8,52.9,29.89,SE,135,3.0,9.0,90,0.00,,---,0.00,VWS V14.00,2013-03-23 04:30:00,
2013-03-22 21:31:00,55.8,53.0,29.89,ESE,112,4.0,9.0,90,0.00,,,0.00,weatherlink.com 1.10,2013-03-23 04:31:00,
2013-03-22 21:46:00,55.8,53.0,29.89,SE,131,6.0,9.0,91,0.00,,,0.00,weatherlink.com 1.10,2013-03-23 04:46:00,
2013-03-22 22:00:00,55.3,52.7,29.89,SE,135,4.0,9.0,91,0.00,,---,0.00,VWS V14.00,2013-03-23 05:00:00,
2013-03-22 22:02:00,55.3,53.0,29.89,SE,133,2.0,5.0,91,0.00,,,0.00,weatherlink.com 1.10,2013-03-23 05:02:00,
2013-03-22 22:16:00,55.0,52.0,29.89,SSE,148,1.0,7.0,90,0.00,,,0.00,weatherlink.com 1.10,2013-03-23 05:16:00,
2013-03-22 22:30:00,54.6,51.7,29.90,SE,135,2.0,7.0,90,0.00,,---,0.00,VWS V14.00,2013-03-23 05:30:00,
2013-03-22 22:31:00,54.7,52.0,29.90,ESE,107,3.0,4.0,90,0.00,,,0.00,weatherlink.com 1.10,2013-03-23 05:31:00,
2013-03-22 22:46:00,54.3,52.0,29.90,ESE,113,2.0,3.0,90,0.00,,,0.00,weatherlink.com 1.10,2013-03-23 05:46:00,
2013-03-22 23:00:00,53.0,50.2,29.91,ESE,112,2.0,4.0,90,0.00,,---,0.00,VWS V14.00,2013-03-23 06:00:00,
2013-03-22 23:02:00,53.3,51.0,29.91,SE,130,2.0,4.0,90,0.00,,,0.00,weatherlink.com 1.10,2013-03-23 06:02:00,
2013-03-22 23:17:00,52.1,49.0,29.91,SE,128,0.0,3.0,90,0.00,,,0.00,weatherlink.com 1.10,2013-03-23 06:17:00,
2013-03-22 23:30:00,52.7,50.5,29.91,ESE,112,1.0,3.0,92,0.00,,---,0.00,VWS V14.00,2013-03-23 06:30:00,
2013-03-22 23:32:00,52.5,50.0,29.90,ESE,115,1.0,3.0,92,0.00,,,0.00,weatherlink.com 1.10,2013-03-23 06:32:00,
2013-03-22 23:47:00,52.9,50.0,29.91,ESE,113,3.0,4.0,91,0.00,,,0.00,weatherlink.com 1.10,2013-03-23 06:47:00,